Location: La Brionne
(46.1728°N, 1.7849°E)
Time: 08:03:03
(UTC+00:00)

Okean 2 - Pass Details

Date: 16 June 2021
Orbit: 560 x 575 km, 82.5° (Epoch: 02 August)

Event Time Altitude Azimuth Distance (km) Brightness Sun altitude
Rises 20:39:55 0° 194° (SSW) 2,747 6.6 -7.8°
Reaches altitude 10° 20:42:06 10° 197° (SSW) 1,853 5.7 -8.0°
Maximum altitude 20:46:09 68° 280° (W) 612 3.8 -8.5°
Drops below altitude 10° 20:50:15 10° 4° (N) 1,863 6.7 -9.0°
Sets 20:52:26 0° 7° (N) 2,763 7.6 -9.2°
